Weather History for Goldsboro, NC

Change the Weather History Date:

Wednesday, March 12, 2014

  Actual Average (KGSB) Record (KGSB)
Temperature  
Mean Temperature 58 °F -  
Max Temperature 68 °F 61 °F 80 °F (2006)
Min Temperature 47 °F 41 °F 30 °F (1998)
Degree Days  
Heating Degree Days 7    
Growing Degree Days 8 (Base 50)    
Moisture  
Dew Point 53 °F    
Average Humidity 75    
Maximum Humidity 96    
Minimum Humidity 51    
Precipitation  
Precipitation 0.23 in - - ()
Sea Level Pressure  
Sea Level Pressure 29.51 in    
Wind  
Wind Speed 9 mph (SW)    
Max Wind Speed 22 mph    
Max Gust Speed 31 mph    
Visibility 10 miles    
Events Rain    
Averages and records for this station are not official NWS values.
T = Trace of Precipitation, MM = Missing Value Source: NWS Daily Summary

Daily Weather History Graph

Daily Weather History Graph

Search for Another Location

Airport:

Trip Planner

Search our weather history database for the weather conditions in past years. The results will help you decide how hot, cold, wet, or windy it might be!

Date:

Astronomy

Mar. 12, 2014 Rise Set
Actual Time 7:26 AM EDT 7:16 PM EDT
Civil Twilight 7:01 AM EDT 7:42 PM EDT
Nautical Twilight 6:31 AM EDT 8:11 PM EDT
Astronomical Twilight 6:02 AM EDT 8:41 PM EDT
Moon 3:51 PM EDT (3/12) 4:50 AM EDT (3/12)
Length of Visible Light 12h 40m
Length of Day
11h 50m
Waxing Gibbous, 85% of the Moon is Illuminated
Mar 12
Waxing Gibbous
Mar 16
Full
Mar 23
Last Quarter
Mar 30
New
Apr 7
First Quarter

Hourly Weather History & Observations

Time (EDT) Temp. Dew Point Humidity Pressure Visibility Wind Dir Wind Speed Gust Speed Precip Events Conditions
12:15 AM 53.2 °F 45.0 °F 73% 29.71 in 10.0 mi Calm Calm - N/A   Clear
12:35 AM 52.0 °F 45.3 °F 78% 29.71 in 10.0 mi Calm Calm - N/A   Clear
12:55 AM 50.5 °F 45.5 °F 83% 29.70 in 10.0 mi South 3.5 mph - N/A   Clear
1:15 AM 55.2 °F 48.2 °F 77% 29.70 in 10.0 mi South 4.6 mph - N/A   Clear
1:35 AM 54.9 °F 48.0 °F 78% 29.69 in 10.0 mi South 4.6 mph - N/A   Clear
1:55 AM 54.5 °F 48.9 °F 81% 29.69 in 10.0 mi South 4.6 mph - N/A   Clear
2:15 AM 55.4 °F 49.3 °F 80% 29.68 in 10.0 mi South 5.8 mph - N/A   Clear
2:35 AM 56.8 °F 50.0 °F 78% 29.67 in 10.0 mi South 4.6 mph - N/A   Clear
2:55 AM 55.9 °F 50.0 °F 80% 29.66 in 10.0 mi Calm Calm - N/A   Clear
3:15 AM 55.8 °F 49.8 °F 80% 29.65 in 10.0 mi South 4.6 mph - N/A   Clear
3:35 AM 55.9 °F 50.5 °F 82% 29.64 in 10.0 mi South 3.5 mph - N/A   Clear
3:55 AM 59.5 °F 51.3 °F 74% 29.62 in 10.0 mi SSW 4.6 mph - N/A   Clear
4:15 AM 58.5 °F 51.4 °F 77% 29.62 in 10.0 mi SSW 6.9 mph - N/A   Clear
4:35 AM 59.5 °F 51.4 °F 75% 29.62 in 10.0 mi SSW 8.1 mph - N/A   Clear
4:55 AM 59.5 °F 51.6 °F 75% 29.61 in 10.0 mi SSW 8.1 mph - N/A   Clear
5:15 AM 59.9 °F 51.6 °F 74% 29.62 in 10.0 mi South 9.2 mph - N/A   Clear
5:35 AM 60.8 °F 52.2 °F 73% 29.62 in 10.0 mi SSW 11.5 mph - N/A   Clear
5:55 AM 61.3 °F 52.7 °F 73% 29.62 in 10.0 mi SSW 13.8 mph - N/A   Clear
6:15 AM 60.8 °F 52.7 °F 75% 29.61 in 10.0 mi SSW 10.4 mph - N/A   Clear
6:35 AM 60.8 °F 52.9 °F 75% 29.61 in 10.0 mi SSW 8.1 mph - N/A   Clear
6:55 AM 60.8 °F 52.9 °F 75% 29.61 in 10.0 mi SSW 9.2 mph - N/A   Scattered Clouds
7:15 AM 60.4 °F 52.9 °F 76% 29.61 in 10.0 mi SSW 8.1 mph - N/A   Scattered Clouds
7:35 AM 60.8 °F 53.2 °F 76% 29.61 in 10.0 mi SSW 8.1 mph - N/A   Clear
7:55 AM 60.4 °F 53.2 °F 77% 29.60 in 10.0 mi South 5.8 mph - N/A   Clear
8:15 AM 60.4 °F 53.6 °F 78% 29.61 in 10.0 mi South 5.8 mph - N/A   Clear
8:35 AM 60.8 °F 53.6 °F 77% 29.61 in 10.0 mi SSW 9.2 mph 16.1 mph N/A   Scattered Clouds
8:55 AM 61.2 °F 53.8 °F 77% 29.61 in 10.0 mi SSW 12.7 mph 18.4 mph N/A   Mostly Cloudy
9:15 AM 61.2 °F 54.0 °F 77% 29.61 in 10.0 mi SSW 10.4 mph - N/A   Light Drizzle
9:35 AM 60.8 °F 54.5 °F 80% 29.60 in 10.0 mi SSW 9.2 mph - N/A   Light Drizzle
9:55 AM 61.2 °F 56.1 °F 83% 29.59 in 10.0 mi SSW 9.2 mph - N/A Rain Light Rain
10:15 AM 62.6 °F 56.3 °F 80% 29.57 in 10.0 mi SSW 9.2 mph - N/A   Scattered Clouds
10:35 AM 63.7 °F 56.3 °F 77% 29.55 in 10.0 mi SW 8.1 mph - N/A   Mostly Cloudy
10:55 AM 64.8 °F 56.5 °F 74% 29.54 in 10.0 mi SSW 10.4 mph - N/A   Overcast
11:15 AM 65.3 °F 55.6 °F 71% 29.53 in 10.0 mi SW 12.7 mph - N/A   Overcast
11:35 AM 66.9 °F 55.2 °F 66% 29.52 in 10.0 mi SSW 15.0 mph - N/A   Overcast
11:55 AM 67.6 °F 54.3 °F 62% 29.51 in 10.0 mi South 13.8 mph 20.7 mph N/A   Overcast
12:15 PM 68.2 °F 54.5 °F 62% 29.50 in 10.0 mi South 18.4 mph 28.8 mph N/A   Mostly Cloudy
12:35 PM 67.1 °F 55.2 °F 66% 29.49 in 10.0 mi SSW 18.4 mph 26.5 mph N/A   Overcast
12:55 PM 66.7 °F 56.1 °F 69% 29.47 in 10.0 mi SSW 17.3 mph 23.0 mph N/A   Overcast
1:15 PM 66.0 °F 56.8 °F 72% 29.47 in 10.0 mi SW 16.1 mph 27.6 mph N/A   Overcast
1:35 PM 64.6 °F 58.1 °F 79% 29.45 in 10.0 mi SW 19.6 mph 31.1 mph N/A   Overcast
1:55 PM 64.8 °F 58.5 °F 80% 29.43 in 10.0 mi SW 19.6 mph 25.3 mph N/A   Overcast
2:15 PM 65.3 °F 59.4 °F 81% 29.42 in 10.0 mi SSW 21.9 mph 27.6 mph N/A   Overcast
2:35 PM 65.1 °F 59.0 °F 81% 29.40 in 10.0 mi SSW 18.4 mph 28.8 mph N/A   Overcast
2:55 PM 66.6 °F 59.7 °F 79% 29.38 in 10.0 mi SW 18.4 mph 21.9 mph N/A   Overcast
3:15 PM 66.6 °F 59.2 °F 77% 29.37 in 10.0 mi SW 18.4 mph 24.2 mph N/A   Overcast
3:35 PM 66.2 °F 58.3 °F 76% 29.37 in 10.0 mi SSW 17.3 mph 27.6 mph N/A   Overcast
3:55 PM 66.7 °F 58.3 °F 74% 29.35 in 10.0 mi SSW 16.1 mph 23.0 mph N/A   Overcast
4:15 PM 66.2 °F 57.9 °F 75% 29.35 in 10.0 mi SW 20.7 mph 26.5 mph N/A   Overcast
4:35 PM 65.7 °F 57.6 °F 75% 29.35 in 10.0 mi SW 20.7 mph 27.6 mph N/A   Overcast
4:55 PM 65.8 °F 57.6 °F 75% 29.33 in 10.0 mi SW 21.9 mph 27.6 mph N/A   Overcast
5:15 PM 66.2 °F 58.1 °F 75% 29.32 in 10.0 mi SW 16.1 mph 25.3 mph N/A   Overcast
5:35 PM 66.4 °F 57.7 °F 74% 29.31 in 10.0 mi SW 17.3 mph 27.6 mph N/A   Overcast
5:55 PM 67.1 °F 58.1 °F 73% 29.30 in 10.0 mi SW 19.6 mph 29.9 mph N/A   Overcast
6:15 PM 66.7 °F 57.9 °F 73% 29.30 in 10.0 mi SW 17.3 mph 20.7 mph N/A   Overcast
6:35 PM 67.8 °F 57.7 °F 70% 29.29 in 10.0 mi SW 19.6 mph 25.3 mph N/A   Mostly Cloudy
6:55 PM 67.3 °F 57.4 °F 70% 29.28 in 10.0 mi SSW 13.8 mph 25.3 mph N/A   Scattered Clouds
7:15 PM 66.6 °F 57.2 °F 72% 29.27 in 10.0 mi SSW 12.7 mph 20.7 mph N/A   Clear
7:35 PM 66.2 °F 57.2 °F 73% 29.28 in 10.0 mi SW 12.7 mph 18.4 mph N/A   Clear
7:55 PM 66.9 °F 57.2 °F 71% 29.28 in 10.0 mi SSW 17.3 mph 20.7 mph N/A   Scattered Clouds
8:15 PM 67.8 °F 57.0 °F 68% 29.30 in 10.0 mi WSW 15.0 mph 28.8 mph N/A   Overcast
8:35 PM 58.3 °F 55.4 °F 90% 29.35 in 5.0 mi West 12.7 mph 26.5 mph 0.14 in Rain Heavy Rain
8:55 PM 57.4 °F 56.3 °F 96% 29.35 in 7.0 mi WNW 5.8 mph - 0.23 in Rain Light Rain
9:15 PM 57.9 °F 55.4 °F 91% 29.38 in 10.0 mi West 11.5 mph 23.0 mph N/A   Light Drizzle
9:35 PM 58.1 °F 53.1 °F 83% 29.38 in 10.0 mi WNW 12.7 mph 23.0 mph N/A   Mostly Cloudy
9:55 PM 57.7 °F 50.2 °F 76% 29.42 in 10.0 mi WNW 18.4 mph 26.5 mph N/A   Mostly Cloudy
10:15 PM 56.3 °F 45.0 °F 66% 29.45 in 10.0 mi WNW 13.8 mph 21.9 mph N/A   Overcast
10:35 PM 53.8 °F 39.6 °F 59% 29.48 in 10.0 mi NW 9.2 mph 29.9 mph N/A   Mostly Cloudy
10:55 PM 51.8 °F 36.7 °F 56% 29.51 in 10.0 mi WNW 12.7 mph 25.3 mph N/A   Clear
11:15 PM 50.0 °F 34.7 °F 56% 29.54 in 10.0 mi WNW 16.1 mph 23.0 mph N/A   Scattered Clouds
11:35 PM 48.7 °F 33.3 °F 55% 29.56 in 10.0 mi WNW 10.4 mph 19.6 mph N/A   Scattered Clouds
11:55 PM 47.7 °F 30.4 °F 51% 29.57 in 10.0 mi NNW 18.4 mph 31.1 mph N/A   Clear